When you browse on this site, cookies collect data to enhance your experience and personalize the content and advertising you see.
Visit our Privacy Policy to learn more. By continuing to use the site, you agree to this use of cookies and data.
  • In Hungary
  • List of Countries
  • For 7 days
  • Water Temperature
  • Satellite Maps
  • Weather Map
  • News
  • Weather Widgets
  • user-avatar
    Login

    Hourly Weather Warka

    Today, 18 January, Friday

    Time Temperature Precipitation Wind Pressure Humidity
    00:00 +1°C° 0 mm 5 mps 742 mmHg 88%
    01:00 +1°C° 0 mm 5 mps 741 mmHg 88%
    02:00 +1°C° 0 mm 5 mps 742 mmHg 88%
    03:00 +1°C° 0 mm 5 mps 742 mmHg 87%
    04:00 +1°C° 0 mm 6 mps 742 mmHg 87%
    05:00 -1°C° 0 mm 6 mps 742 mmHg 86%
    06:00 -1°C° 0 mm 6 mps 743 mmHg 85%
    07:00 -1°C° 0 mm 5 mps 743 mmHg 85%
    08:00 -2°C° 0 mm 6 mps 744 mmHg 83%
    09:00 -2°C° 0 mm 7 mps 744 mmHg 81%
    10:00 -2°C° 0 mm 7 mps 745 mmHg 79%
    11:00 -2°C° 0.1 mm 7 mps 746 mmHg 79%
    12:00 -2°C° 0.1 mm 6 mps 747 mmHg 78%
    13:00 -2°C° 0 mm 6 mps 748 mmHg 77%
    14:00 -1°C° 0 mm 5 mps 749 mmHg 77%
    15:00 -2°C° 0 mm 5 mps 749 mmHg 77%
    16:00 -3°C° 0 mm 4 mps 750 mmHg 77%
    17:00 -3°C° 0 mm 4 mps 751 mmHg 78%
    18:00 -4°C° 0 mm 4 mps 751 mmHg 79%
    19:00 -4°C° 0 mm 3 mps 752 mmHg 80%
    20:00 -4°C° 0 mm 4 mps 752 mmHg 80%
    21:00 -4°C° 0 mm 4 mps 753 mmHg 79%
    22:00 -4°C° 0 mm 4 mps 754 mmHg 79%
    23:00 -4°C° 0 mm 4 mps 754 mmHg 81%

    Tomorrow, 19 January, Saturday

    Time Temperature Precipitation Wind Pressure Humidity
    00:00 -4°C° 0 mm 4 mps 754 mmHg 82%
    01:00 -4°C° 0 mm 3 mps 754 mmHg 83%
    02:00 -4°C° 0 mm 3 mps 755 mmHg 84%
    03:00 -4°C° 0 mm 3 mps 755 mmHg 84%
    04:00 -4°C° 0 mm 3 mps 755 mmHg 84%
    05:00 -4°C° 0 mm 3 mps 755 mmHg 85%
    06:00 -4°C° 0 mm 3 mps 755 mmHg 85%
    07:00 -4°C° 0 mm 3 mps 755 mmHg 85%
    08:00 -4°C° 0 mm 3 mps 755 mmHg 83%
    09:00 -2°C° 0 mm 3 mps 756 mmHg 82%
    10:00 -2°C° 0 mm 3 mps 756 mmHg 80%
    11:00 -1°C° 0 mm 3 mps 756 mmHg 78%
    12:00 -1°C° 0 mm 3 mps 756 mmHg 76%
    13:00 -1°C° 0 mm 3 mps 756 mmHg 74%
    14:00 -1°C° 0 mm 2 mps 756 mmHg 77%
    15:00 -2°C° 0 mm 2 mps 756 mmHg 79%
    16:00 0°C° 0 mm 1 mps 755 mmHg 82%
    17:00 0°C° 0 mm 1 mps 755 mmHg 83%
    18:00 -1°C° 0 mm 1 mps 755 mmHg 84%
    19:00 -1°C° 0 mm 1 mps 755 mmHg 85%
    20:00 -1°C° 0 mm 1 mps 755 mmHg 85%
    21:00 -1°C° 0 mm 1 mps 755 mmHg 86%
    22:00 -1°C° 0 mm 1 mps 755 mmHg 86%
    23:00 -1°C° 0 mm 1 mps 755 mmHg 87%

    Day after tomorrow, 20 January, Sunday

    Time Temperature Precipitation Wind Pressure Humidity
    00:00 -1°C° 0 mm 1 mps 755 mmHg 87%
    01:00 -1°C° 0 mm 1 mps 755 mmHg 87%
    02:00 -2°C° 0 mm 1 mps 754 mmHg 86%
    03:00 -2°C° 0 mm 1 mps 754 mmHg 86%
    04:00 -2°C° 0 mm 1 mps 754 mmHg 86%
    05:00 -2°C° 0 mm 1 mps 754 mmHg 85%
    06:00 -2°C° 0 mm 1 mps 754 mmHg 85%
    07:00 -3°C° 0 mm 0 mps 754 mmHg 84%
    08:00 -3°C° 0 mm 0 mps 754 mmHg 81%
    09:00 -1°C° 0 mm 1 mps 754 mmHg 77%
    10:00 -1°C° 0 mm 1 mps 754 mmHg 74%
    11:00 0°C° 0 mm 1 mps 754 mmHg 71%
    12:00 0°C° 0 mm 1 mps 754 mmHg 68%
    13:00 0°C° 0 mm 1 mps 753 mmHg 65%
    14:00 0°C° 0 mm 1 mps 753 mmHg 68%
    15:00 0°C° 0 mm 1 mps 753 mmHg 71%
    16:00 -1°C° 0 mm 1 mps 753 mmHg 74%
    17:00 -1°C° 0 mm 1 mps 753 mmHg 75%
    18:00 -1°C° 0 mm 1 mps 754 mmHg 76%
    19:00 -1°C° 0 mm 1 mps 754 mmHg 77%
    20:00 -4°C° 0 mm 2 mps 754 mmHg 77%
    21:00 -4°C° 0 mm 2 mps 755 mmHg 78%
    22:00 -4°C° 0 mm 2 mps 755 mmHg 78%
    23:00 -4°C° 0 mm 2 mps 755 mmHg 80%

    21 January, Monday

    Time Temperature Precipitation Wind Pressure Humidity
    00:00 -4°C° 0 mm 2 mps 755 mmHg 82%
    01:00 -4°C° 0 mm 2 mps 756 mmHg 83%
    02:00 -4°C° 0 mm 2 mps 756 mmHg 85%
    03:00 -4°C° 0 mm 2 mps 756 mmHg 88%
    04:00 -4°C° 0 mm 2 mps 756 mmHg 90%
    05:00 -4°C° 0 mm 2 mps 756 mmHg 90%
    06:00 -1°C° 0 mm 1 mps 757 mmHg 91%
    07:00 -1°C° 0 mm 1 mps 757 mmHg 91%
    08:00 -1°C° 0 mm 1 mps 757 mmHg 90%
    09:00 -3°C° 0 mm 2 mps 757 mmHg 88%
    10:00 -2°C° 0 mm 2 mps 757 mmHg 86%
    11:00 -2°C° 0 mm 2 mps 757 mmHg 83%
    12:00 -1°C° 0 mm 2 mps 757 mmHg 81%
    13:00 -1°C° 0 mm 3 mps 757 mmHg 78%
    14:00 -1°C° 0 mm 3 mps 757 mmHg 80%
    15:00 -2°C° 0 mm 2 mps 756 mmHg 82%
    16:00 -2°C° 0 mm 2 mps 756 mmHg 84%
    17:00 -3°C° 0 mm 2 mps 756 mmHg 85%
    18:00 -3°C° 0 mm 2 mps 756 mmHg 86%
    19:00 -3°C° 0 mm 2 mps 756 mmHg 87%
    20:00 -4°C° 0 mm 3 mps 756 mmHg 88%
    21:00 -4°C° 0 mm 3 mps 756 mmHg 88%
    22:00 -4°C° 0 mm 3 mps 756 mmHg 88%
    23:00 -4°C° 0 mm 3 mps 755 mmHg 88%

    22 January, Tuesday

    Time Temperature Precipitation Wind Pressure Humidity
    00:00 -4°C° 0 mm 3 mps 755 mmHg 87%
    01:00 -5°C° 0 mm 3 mps 755 mmHg 87%
    02:00 -5°C° 0 mm 3 mps 754 mmHg 87%
    03:00 -5°C° 0 mm 3 mps 754 mmHg 86%
    04:00 -5°C° 0 mm 3 mps 753 mmHg 86%
    05:00 -5°C° 0 mm 3 mps 753 mmHg 85%
    06:00 -5°C° 0 mm 3 mps 753 mmHg 85%
    07:00 -6°C° 0 mm 3 mps 752 mmHg 84%
    08:00 -5°C° 0 mm 3 mps 752 mmHg 80%
    09:00 -5°C° 0 mm 3 mps 752 mmHg 76%
    10:00 -4°C° 0 mm 3 mps 752 mmHg 72%
    11:00 -4°C° 0 mm 3 mps 751 mmHg 70%
    12:00 -2°C° 0 mm 3 mps 751 mmHg 67%
    13:00 -2°C° 0 mm 2 mps 750 mmHg 64%
    14:00 -2°C° 0 mm 2 mps 750 mmHg 67%
    15:00 -2°C° 0 mm 2 mps 749 mmHg 69%
    16:00 -3°C° 0 mm 2 mps 749 mmHg 72%
    17:00 -3°C° 0 mm 2 mps 748 mmHg 73%
    18:00 -4°C° 0 mm 3 mps 748 mmHg 74%
    19:00 -5°C° 0 mm 3 mps 748 mmHg 75%
    20:00 -5°C° 0 mm 3 mps 747 mmHg 76%
    21:00 -5°C° 0 mm 3 mps 747 mmHg 78%
    22:00 -5°C° 0 mm 4 mps 747 mmHg 79%
    23:00 -5°C° 0 mm 4 mps 746 mmHg 82%

    23 January, Wednesday

    Time Temperature Precipitation Wind Pressure Humidity
    00:00 -5°C° 0 mm 4 mps 746 mmHg 85%
    01:00 -5°C° 0 mm 4 mps 745 mmHg 89%
    02:00 -7°C° 0 mm 4 mps 745 mmHg 88%
    03:00 -7°C° 0 mm 4 mps 744 mmHg 87%
    04:00 -7°C° 0 mm 5 mps 744 mmHg 86%
    05:00 -7°C° 0 mm 5 mps 743 mmHg 86%
    06:00 -7°C° 0 mm 5 mps 743 mmHg 85%
    07:00 -8°C° 0 mm 5 mps 743 mmHg 85%
    08:00 -8°C° 0 mm 6 mps 743 mmHg 83%
    09:00 -8°C° 0 mm 6 mps 743 mmHg 81%
    10:00 -8°C° 0 mm 6 mps 742 mmHg 79%
    11:00 -6°C° 0 mm 6 mps 742 mmHg 78%
    12:00 -6°C° 0 mm 6 mps 741 mmHg 77%
    13:00 -5°C° 0 mm 6 mps 741 mmHg 76%
    14:00 -5°C° 0.1 mm 6 mps 741 mmHg 79%
    15:00 -5°C° 0.1 mm 6 mps 740 mmHg 81%
    16:00 -4°C° 0.1 mm 5 mps 740 mmHg 84%
    17:00 -4°C° 0 mm 5 mps 740 mmHg 85%
    18:00 -4°C° 0 mm 5 mps 740 mmHg 86%
    19:00 -4°C° 0 mm 5 mps 740 mmHg 86%
    20:00 -4°C° 0 mm 5 mps 739 mmHg 88%
    21:00 -2°C° 0 mm 5 mps 739 mmHg 90%
    22:00 -2°C° 0 mm 5 mps 739 mmHg 91%
    23:00 -2°C° 0.2 mm 5 mps 739 mmHg 91%
    Show more